{"data":{"norad_id":62317,"intl_designator":"2024-239S","name":"STARLINK-32519","alt_names":[],"object_type":"PAYLOAD","status":"ACTIVE","operator":null,"country":"US","launch_date":"2024-12-13","launch_site_code":"AFWTR","launch_vehicle":null,"mission":null,"orbit_class":"UNKNOWN","rcs_meters":null,"size_class":null,"mass_kg":null,"dimensions":null,"purposes":["comms"],"wikipedia_slug":null,"has_3d_model":false,"image_url":null,"decayed_at":null,"tle_current":{"epoch":"2026-05-25T01:51:10.647648Z","epoch_age_seconds":68434,"freshness":"FRESH","line1":"1 62317U 24239S   26145.07720657  .00013432  00000+0  46475-3 0  9992","line2":"2 62317  53.1579 186.0069 0001100  97.1481 262.9644 15.30204066 81260","mean_motion":15.30204066,"eccentricity":0.00011,"inclination_deg":53.1579,"raan_deg":186.0069,"arg_perigee_deg":97.1481,"mean_anomaly_deg":262.9644,"bstar":0.00046475,"rev_number":8126,"period_min":94.105095653301,"perigee_km":474.44906171091,"apogee_km":475.95679649531,"semimajor_km":6853.3399291031,"source":"CELESTRAK","updated_at":"2026-05-25T13:38:19.650613Z"}}}